Wind_Speed
56 56 55 53 53 51 49 50 49 49 51 52 53 53 52 53 55 57 59 59 62 62 64 67 68 69 73 76 80 84 88 92 98 102 100 96 94 90 88 87 87 83 83 76 72 67 61 50 55 53 49 48 52 47
57 56 55 54 52 51 52 51 52 52 50 49 50 51 51 51 52 56 60 63 62 63 67 67 68 70 69 71 75 76 80 86 91 94 97 100 98 96 92 90 90 91 82 79 77 69 66 62 65 62 57 53 48 44
58 57 55 52 51 53 54 54 53 50 51 50 49 50 50 51 53 54 58 62 63 65 65 65 68 70 71 71 72 74 76 81 84 86 90 95 96 98 98 94 93 90 89 87 81 74 72 71 67 65 60 55 51 46
58 55 53 52 53 54 54 53 53 52 49 46 43 44 44 45 49 54 57 60 58 64 68 71 69 70 71 73 72 74 73 77 78 80 83 87 89 94 99 100 99 95 94 88 84 82 80 74 73 68 63 58 54 50
55 54 54 54 54 53 53 55 53 49 45 42 40 39 40 40 45 50 56 60 61 64 69 72 73 71 71 71 73 75 75 76 76 76 77 81 87 93 97 103 102 97 95 92 87 84 82 81 81 75 66 60 57 52
56 55 56 56 54 54 54 51 47 44 42 41 39 36 38 39 42 47 51 57 64 67 66 66 72 75 73 72 72 74 76 76 76 73 74 76 82 89 95 101 100 101 100 96 95 90 85 86 82 78 71 63 59 57
57 57 56 55 56 53 50 46 42 39 37 37 36 35 35 38 40 44 50 56 62 67 68 67 71 74 75 74 73 74 73 75 75 74 71 74 80 88 92 97 99 100 100 98 96 94 89 83 83 79 75 69 63 63
57 57 57 56 53 49 46 42 40 35 33 32 32 32 33 36 38 42 47 52 58 63 67 69 71 71 73 75 75 74 75 73 74 74 74 75 81 82 82 89 98 100 103 102 98 95 90 88 85 84 80 74 69 66
57 57 54 50 48 44 40 38 35 33 31 29 28 28 33 36 36 40 43 48 53 57 62 67 68 68 72 75 76 75 75 74 74 74 76 77 79 71 71 85 97 104 102 99 98 100 95 91 88 87 83 80 74 71
57 53 49 46 44 41 36 33 33 32 29 25 20 27 35 31 31 37 39 43 48 53 58 64 68 72 68 73 76 76 77 76 74 75 76 73 69 73 78 82 91 100 103 102 99 99 98 95 90 87 84 82 79 77
51 46 42 40 38 35 31 31 31 30 27 21 24 34 31 23 30 34 37 40 43 48 54 59 62 69 70 73 76 76 77 75 74 74 73 71 71 75 80 82 86 95 100 99 101 101 98 97 95 90 85 84 83 79
46 41 36 31 28 28 26 25 26 26 23 21 28 26 20 14 26 32 37 40 44 49 54 59 65 68 71 74 74 73 75 73 73 78 73 67 73 77 78 78 78 84 92 98 100 102 100 98 96 93 90 86 87 84
41 36 32 28 26 24 22 23 22 21 19 20 24 19 15 22 31 34 38 41 44 48 52 57 61 61 65 68 72 71 71 69 75 73 69 66 74 76 77 76 78 81 86 92 97 100 100 98 97 95 93 89 86 85
38 31 26 23 22 21 19 20 19 17 18 20 24 20 24 29 28 29 33 35 39 43 48 51 51 56 59 60 67 67 64 68 65 67 67 71 77 75 76 78 80 82 83 86 90 94 96 97 95 93 93 92 89 86
34 27 23 20 17 16 15 14 14 15 17 18 16 18 22 21 23 24 27 32 35 36 37 40 43 46 50 53 59 62 66 67 67 67 65 71 75 74 73 77 79 81 82 83 86 88 91 94 95 95 96 95 91 89
27 23 21 19 16 13 12 9 8 8 8 8 12 13 14 17 18 20 21 24 27 31 34 36 39 41 43 46 51 59 65 70 70 67 67 70 70 67 72 72 72 73 78 80 82 85 89 92 95 97 98 94 91 90
27 25 20 16 13 11 8 5 4 4 7 8 7 9 11 12 14 16 17 17 20 25 29 31 33 34 35 42 52 57 60 66 67 66 67 64 64 67 68 68 69 71 74 79 80 83 85 88 90 93 93 92 94 93
27 24 20 17 13 10 7 2 1 3 3 4 5 9 10 11 12 12 14 16 19 21 24 27 30 35 40 42 43 45 47 49 53 59 65 62 60 61 65 71 71 68 71 76 81 83 85 86 86 88 88 88 92 92
25 20 13 10 7 6 4 1 1 3 4 6 7 6 7 8 10 10 10 11 14 15 17 20 24 28 27 26 29 31 36 45 49 51 56 60 62 67 71 69 68 71 74 76 81 84 85 86 87 86 84 84 86 87
22 19 16 12 8 4 3 4 5 4 5 5 6 7 8 8 10 12 12 14 15 15 16 18 20 19 24 29 35 41 39 40 43 46 50 59 65 62 57 63 70 75 76 75 78 81 82 84 82 82 82 82 84 87
20 18 16 14 11 10 8 7 6 5 5 5 4 3 3 5 8 9 11 12 14 16 18 21 21 22 27 29 29 31 34 36 40 45 48 52 56 58 57 60 68 70 74 75 75 76 78 78 79 79 81 81 82 85
21 17 13 11 9 6 3 3 3 5 6 5 4 4 3 2 1 1 2 6 10 12 12 12 14 19 22 25 29 29 31 33 34 37 43 48 51 54 57 58 63 68 71 74 76 75 73 75 79 81 81 83 83 82
20 19 13 10 8 7 6 7 6 5 6 8 8 6 5 5 7 7 6 5 6 9 11 13 15 19 23 23 21 23 25 29 34 37 41 44 49 54 57 58 60 64 68 71 73 74 75 74 75 76 77 77 80 81
21 18 17 16 13 10 7 3 2 3 6 8 10 9 8 7 7 9 8 9 11 11 12 15 18 20 19 20 22 25 29 31 31 34 39 43 45 49 52 54 54 56 61 64 66 69 72 72 72 73 74 73 73 74
22 21 17 16 12 12 5 2 4 3 6 10 12 11 9 9 9 8 10 12 14 16 18 19 21 23 22 22 23 25 27 30 32 34 35 38 42 46 50 52 54 55 58 61 63 65 70 72 72 72 73 73 72 72
21 22 20 16 13 11 10 8 4 3 5 6 10 12 11 11 12 11 10 11 12 12 14 17 18 20 22 23 22 23 24 27 31 34 37 40 43 47 51 54 58 58 59 61 64 66 66 70 71 71 70 69 69 70
19 19 20 17 14 10 8 9 7 4 4 3 6 9 9 10 10 8 8 9 8 7 8 10 10 10 12 15 18 20 22 24 27 31 35 39 43 47 51 54 56 57 58 59 60 60 63 65 68 71 71 71 70 69
16 17 17 16 13 12 10 8 8 7 6 5 5 4 5 8 8 9 10 10 11 12 13 12 12 15 18 19 21 23 24 25 27 31 34 38 40 42 46 49 52 54 54 55 55 56 56 58 60 64 68 71 71 71
15 15 15 15 13 11 9 7 7 7 8 8 8 9 11 9 8 11 11 12 13 13 13 14 15 17 17 19 20 21 23 26 28 30 32 34 37 41 44 47 50 52 54 55 56 55 52 53 57 59 58 63 67 70
16 17 15 14 14 13 11 9 7 7 9 9 10 10 11 13 13 12 13 12 12 12 12 13 13 12 13 18 20 21 22 24 26 28 31 34 35 36 38 41 43 45 47 50 51 52 53 54 54 53 52 57 61 62
17 18 20 16 15 14 13 12 11 8 8 11 11 11 13 14 15 16 17 18 18 16 14 12 10 11 13 13 16 22 23 25 26 27 28 30 31 32 34 36 38 39 41 44 46 48 50 51 53 53 55 57 58 60
23 21 22 21 19 17 16 16 16 15 13 12 13 14 13 17 19 22 21 20 20 20 19 17 14 13 13 13 14 16 18 21 23 24 25 27 28 29 30 32 33 35 36 39 41 43 44 47 49 49 51 53 55 57
27 27 26 25 23 21 21 19 19 19 17 17 16 14 14 14 17 21 20 22 22 24 22 19 17 15 14 14 14 14 15 16 18 20 21 23 24 26 27 29 30 31 33 34 36 37 40 43 45 46 48 49 51 53
Wind_Direction
300 300 299 299 297 294 291 288 283 278 274 271 267 264 258 250 245 242 240 237 235 233 232 229 228 227 224 224 225 225 225 226 226 225 225 223 223 225 222 222 223 224 224 224 224 222 219 224 236 240 238 237 240 244
300 301 301 300 298 296 293 288 284 280 276 272 267 264 259 254 246 240 238 236 232 230 229 228 227 227 226 224 225 225 225 225 226 226 225 224 223 222 220 221 222 223 223 224 224 222 220 222 231 235 236 237 240 243
303 303 303 302 298 295 292 290 288 285 281 277 271 264 258 252 246 239 236 234 231 229 229 228 227 226 225 224 223 224 224 225 225 225 225 224 223 221 219 220 222 221 221 222 221 220 220 224 229 234 235 236 238 239
305 306 303 299 297 296 294 292 289 288 285 279 272 263 256 249 244 238 234 234 229 226 225 225 225 225 225 224 223 225 223 224 224 224 224 223 222 219 217 216 220 220 220 220 219 220 221 221 229 232 234 236 238 240
308 304 301 301 299 296 294 293 292 289 283 277 271 262 254 246 240 236 231 228 226 225 224 223 223 223 224 224 224 224 223 224 224 224 223 222 220 218 215 216 218 220 220 219 220 221 220 221 226 229 230 232 236 239
305 304 303 301 299 297 294 292 290 285 281 276 270 261 253 245 237 234 230 226 225 223 224 222 222 223 223 223 223 223 223 223 224 223 223 222 221 218 216 215 216 218 219 218 219 219 219 221 225 228 230 231 234 239
306 305 303 302 300 298 295 293 290 284 278 273 268 260 251 245 237 231 228 225 223 223 221 220 221 222 222 222 222 223 223 223 223 224 222 221 221 219 217 215 217 218 219 219 219 220 220 223 225 226 229 232 232 236
307 306 305 304 302 300 298 294 289 283 277 270 264 259 251 244 237 232 229 226 224 224 223 220 220 220 222 222 222 223 224 222 222 222 222 221 222 221 217 216 216 217 219 219 219 220 221 222 224 226 226 230 233 235
309 309 308 305 303 301 297 290 286 282 277 268 260 255 251 243 236 234 229 226 224 224 224 222 222 221 221 223 223 222 223 222 222 222 222 222 222 221 219 218 217 217 218 219 219 221 220 221 223 225 226 228 232 236
312 312 310 306 302 300 294 288 283 279 273 265 258 247 246 241 233 234 230 226 224 222 223 224 222 221 219 222 223 224 223 223 222 222 222 221 220 219 220 218 217 219 219 218 218 221 221 222 223 225 225 227 230 234
315 313 309 302 297 294 288 282 277 272 268 258 241 242 247 236 230 231 230 226 221 221 223 223 223 223 220 222 224 224 224 224 223 224 223 221 217 219 220 220 218 218 218 218 218 219 220 222 222 224 226 226 228 231
320 316 310 304 298 291 284 277 273 267 260 249 246 253 255 238 231 228 226 224 218 217 219 220 220 220 220 220 223 224 225 224 223 224 222 219 221 221 222 222 221 219 219 218 219 220 221 220 223 224 224 226 228 229
322 318 314 310 305 297 289 280 273 267 255 246 250 246 225 217 220 222 222 224 221 220 220 222 222 221 222 219 223 224 225 224 224 225 222 219 223 222 221 221 221 220 219 220 220 221 222 222 222 224 225 226 228 230
323 319 316 313 305 294 283 275 270 261 250 240 242 234 225 230 230 227 223 225 226 226 227 226 225 224 224 221 222 223 224 227 227 226 223 221 224 222 220 218 219 220 219 220 221 222 223 224 225 226 227 227 229 231
326 329 328 326 321 309 290 276 272 263 255 256 258 245 241 239 235 232 225 224 227 228 230 232 232 229 228 225 223 222 221 222 223 223 221 222 223 222 220 219 219 219 219 219 220 221 222 225 227 227 228 229 229 231
333 336 338 338 329 319 311 304 298 294 290 263 245 235 235 236 235 231 227 225 226 227 227 227 227 225 227 225 223 222 221 221 220 219 218 219 220 220 220 220 220 220 222 221 220 220 222 225 226 228 229 230 230 232
339 343 342 345 344 340 334 329 310 285 261 241 230 228 225 225 226 224 221 222 222 222 226 229 229 226 224 226 225 223 222 223 221 219 221 220 219 216 219 220 220 218 219 222 223 221 222 225 228 230 229 229 231 232
345 342 341 347 351 348 345 341 147 157 169 193 212 214 211 206 205 210 214 210 211 214 216 217 218 218 221 223 224 227 227 228 227 222 221 222 220 215 216 217 216 217 217 219 222 224 224 223 225 228 229 229 230 231
344 344 347 356 359 11 8 193 138 125 167 193 206 206 215 224 230 228 227 226 225 222 222 221 225 227 227 230 228 224 221 221 221 221 220 219 217 216 213 212 213 214 215 217 219 221 224 225 224 226 227 228 231 233
350 352 358 3 8 18 47 68 93 121 145 151 166 177 190 201 213 215 215 216 217 214 215 213 212 204 201 206 208 209 213 215 215 214 214 218 220 221 215 211 212 213 214 215 218 220 224 226 227 227 227 227 229 232
356 359 6 9 15 19 25 41 46 51 63 74 93 114 162 194 208 210 209 208 206 207 205 205 205 204 205 207 209 209 208 210 211 211 210 213 216 217 215 214 214 213 215 215 217 219 221 224 226 229 229 229 229 230
2 3 3 2 2 28 52 119 94 93 88 86 87 96 119 122 115 91 187 200 204 204 199 191 191 201 199 197 201 202 204 208 207 204 206 210 211 212 214 213 214 215 216 217 219 219 220 222 224 226 227 229 230 231
7 7 4 350 359 5 22 46 55 88 94 89 98 113 138 152 154 146 158 167 186 195 188 179 183 194 195 190 188 191 195 200 202 200 201 204 207 210 212 213 215 215 216 218 219 220 221 223 225 228 230 231 232 233
5 4 9 3 360 14 10 38 71 112 102 109 107 108 112 120 139 145 146 152 158 161 170 172 181 187 178 179 188 194 198 198 197 200 202 205 207 211 212 214 216 219 220 221 221 222 222 224 226 228 230 231 233 235
8 5 357 9 7 354 353 276 153 90 86 95 101 99 107 116 122 139 159 163 162 171 177 181 173 168 170 179 187 192 190 191 189 195 200 203 207 208 208 210 213 215 218 220 221 222 222 223 225 227 228 230 231 233
354 1 357 354 3 349 326 318 299 169 148 103 119 126 123 125 125 117 125 137 147 165 173 180 184 180 178 178 180 187 192 192 193 195 197 202 205 211 211 211 214 216 218 220 221 221 222 224 225 227 229 230 232 233
340 345 349 344 339 340 331 319 312 279 238 193 150 140 138 132 130 128 129 135 139 155 163 168 178 191 198 196 195 199 204 205 206 208 207 208 209 211 214 216 217 219 220 223 224 224 224 224 226 227 229 231 232 233
325 326 336 341 331 323 321 316 316 308 290 256 253 234 181 168 179 169 161 166 176 176 174 183 201 202 204 207 206 206 210 215 215 213 213 216 217 217 219 221 223 226 228 229 229 228 228 228 227 228 230 232 234 235
306 309 319 328 329 316 309 311 306 305 303 293 276 264 257 257 218 199 201 205 205 209 203 199 201 201 207 214 217 217 214 216 220 222 222 220 221 221 222 224 226 227 228 229 231 231 228 229 230 231 230 233 235 237
297 297 301 307 310 310 310 304 295 286 284 285 278 276 271 269 264 251 244 240 235 230 229 225 218 216 215 212 210 211 216 218 217 218 221 223 223 225 227 228 229 230 232 234 235 235 235 235 235 235 233 234 237 238
286 286 293 295 292 293 294 294 283 267 274 275 276 273 272 267 263 263 257 253 255 259 255 248 240 230 220 212 216 217 218 222 223 223 222 224 226 227 228 229 231 231 231 232 234 235 236 237 238 237 236 235 236 238
283 282 287 291 288 284 285 281 279 277 269 265 257 248 245 245 250 254 259 258 257 258 256 254 251 244 234 228 226 223 221 223 225 225 226 226 226 226 226 226 227 228 228 229 231 233 235 237 239 240 241 241 241 241
278 281 283 287 287 289 287 285 280 273 269 269 265 261 252 238 229 235 246 252 251 244 244 249 250 247 244 240 236 232 231 228 226 227 230 231 231 231 231 230 229 228 228 228 229 231 232 233 234 236 237 238 241 242
Height
10102 10096 10091 10086 10080 10074 10071 10068 10065 10063 10061 10060 10060 10061 10064 10069 10073 10079 10083 10090 10097 10106 10115 10124 10131 10142 10151 10162 10170 10179 10194 10209 10219 10233 10251 10270 10285 10296 10310 10324 10334 10346 10356 10374 10383 10396 10407 10415 10413 10417 10422 10427 10427 10437
10085 10079 10074 10069 10063 10057 10052 10048 10044 10042 10041 10040 10040 10039 10042 10046 10051 10057 10062 10068 10078 10086 10093 10103 10114 10122 10134 10145 10154 10163 10175 10185 10196 10208 10228 10243 10261 10275 10291 10302 10314 10320 10345 10359 10368 10385 10391 10399 10392 10400 10407 10414 10422 10429
10068 10063 10057 10052 10045 10038 10033 10029 10025 10023 10020 10019 10018 10017 10019 10023 10028 10035 10041 10046 10056 10068 10079 10088 10095 10104 10115 10124 10135 10145 10155 10163 10175 10188 10203 10218 10233 10253 10267 10284 10292 10311 10321 10334 10349 10367 10375 10380 10383 10388 10398 10405 10412 10419
10052 10046 10040 10033 10027 10021 10015 10010 10005 10002 9999 9996 9996 9996 9998 10003 10007 10014 10022 10028 10041 10048 10056 10065 10077 10086 10096 10107 10118 10126 10139 10147 10158 10171 10183 10198 10216 10229 10245 10262 10269 10287 10300 10322 10332 10342 10353 10366 10371 10374 10385 10395 10401 10407
10036 10028 10021 10015 10008 10002 9996 9991 9986 9982 9979 9977 9977 9979 9980 9984 9989 9993 10000 10009 10019 10027 10033 10043 10056 10068 10078 10089 10099 10108 10121 10131 10142 10154 10167 10181 10193 10204 10224 10237 10252 10273 10288 10303 10322 10325 10339 10346 10349 10359 10372 10383 10391 10397
10018 10010 10003 9996 9989 9982 9977 9972 9968 9965 9961 9960 9960 9962 9963 9967 9971 9976 9985 9993 10000 10006 10017 10032 10038 10048 10060 10070 10081 10091 10102 10115 10126 10139 10151 10165 10174 10189 10203 10219 10239 10250 10264 10282 10294 10307 10320 10327 10337 10351 10362 10371 10381 10386
10000 9993 9985 9977 9969 9962 9956 9953 9949 9947 9945 9944 9944 9945 9947 9950 9955 9960 9966 9972 9979 9989 10000 10012 10021 10031 10042 10053 10064 10075 10087 10099 10111 10123 10138 10148 10156 10166 10183 10206 10223 10235 10249 10264 10280 10292 10305 10321 10329 10339 10350 10359 10367 10371
9983 9974 9966 9958 9950 9944 9939 9935 9932 9930 9929 9929 9929 9930 9932 9935 9940 9945 9951 9960 9967 9975 9985 9996 10004 10018 10028 10038 10049 10060 10070 10084 10097 10108 10120 10130 10136 10151 10176 10197 10208 10218 10227 10243 10263 10278 10293 10299 10312 10324 10333 10344 10352 10358
9966 9957 9949 9941 9934 9928 9924 9920 9917 9915 9915 9916 9917 9918 9917 9920 9927 9931 9939 9946 9954 9964 9973 9983 9994 10006 10014 10022 10032 10045 10053 10068 10079 10092 10102 10112 10124 10152 10173 10175 10183 10192 10209 10230 10243 10254 10270 10282 10292 10303 10318 10329 10338 10344
9950 9941 9933 9925 9919 9914 9911 9907 9905 9903 9903 9905 9906 9905 9903 9910 9918 9920 9927 9934 9942 9951 9958 9967 9977 9986 10003 10008 10015 10027 10038 10049 10064 10076 10084 10104 10126 10136 10143 10152 10164 10175 10190 10204 10223 10237 10252 10265 10277 10287 10303 10312 10323 10327
9936 9927 9920 9912 9907 9903 9899 9896 9894 9892 9892 9894 9894 9890 9895 9904 9906 9910 9915 9922 9931 9938 9944 9953 9965 9972 9986 9992 9999 10011 10020 10038 10052 10060 10076 10093 10109 10114 10121 10131 10142 10155 10171 10190 10202 10213 10231 10245 10256 10269 10283 10296 10303 10314
9922 9914 9907 9901 9896 9892 9889 9886 9884 9883 9884 9885 9883 9886 9892 9897 9899 9902 9905 9910 9915 9921 9926 9933 9940 9951 9962 9975 9985 9997 10006 10022 10038 10042 10061 10083 10089 10095 10108 10121 10135 10146 10158 10170 10183 10196 10208 10224 10236 10250 10263 10276 10285 10295
9911 9903 9896 9890 9886 9882 9879 9877 9875 9875 9876 9877 9877 9881 9885 9885 9886 9889 9894 9899 9905 9909 9915 9921 9929 9943 9951 9964 9972 9984 9996 10010 10014 10032 10054 10072 10066 10078 10091 10108 10118 10129 10141 10154 10167 10179 10192 10207 10217 10231 10245 10258 10268 10279
9901 9895 9888 9882 9878 9875 9873 9869 9868 9869 9869 9870 9870 9874 9876 9877 9881 9885 9889 9895 9900 9904 9908 9914 9924 9933 9941 9953 9960 9975 9989 9995 10013 10025 10038 10047 10048 10061 10073 10087 10099 10109 10121 10135 10149 10163 10178 10191 10205 10216 10228 10238 10249 10259
9893 9887 9881 9875 9872 9869 9866 9864 9863 9863 9864 9865 9868 9870 9872 9875 9877 9881 9885 9889 9893 9898 9905 9912 9920 9928 9936 9945 9951 9962 9970 9979 9989 10002 10018 10021 10029 10042 10057 10068 10080 10093 10105 10118 10132 10146 10161 10174 10186 10196 10206 10217 10232 10243
9888 9882 9876 9871 9868 9864 9862 9861 9860 9860 9862 9863 9865 9867 9869 9871 9873 9876 9880 9884 9889 9893 9897 9902 9908 9916 9925 9934 9941 9944 9951 9957 9967 9982 9992 9996 10014 10032 10041 10054 10070 10085 10096 10107 10119 10132 10142 10152 10162 10173 10183 10202 10218 10227
9883 9878 9872 9868 9864 9861 9859 9859 9858 9858 9859 9861 9862 9863 9865 9868 9870 9873 9875 9879 9884 9887 9891 9896 9903 9909 9917 9918 9919 9929 9939 9943 9955 9971 9979 9990 10004 10016 10031 10047 10058 10069 10084 10096 10105 10115 10126 10134 10144 10155 10171 10187 10196 10206
9881 9876 9870 9865 9863 9861 9860 9859 9858 9858 9858 9858 9860 9861 9862 9864 9866 9868 9870 9873 9877 9881 9886 9890 9894 9898 9901 9907 9915 9925 9935 9945 9954 9962 9970 9980 9992 10004 10018 10024 10039 10056 10067 10078 10089 10097 10105 10115 10127 10136 10148 10164 10173 10187
9881 9876 9872 9867 9864 9862 9861 9861 9860 9859 9859 9859 9859 9859 9861 9863 9864 9866 9868 9871 9875 9880 9883 9887 9890 9894 9900 9907 9915 9921 9927 9931 9938 9949 9960 9969 9975 9981 9989 10009 10025 10035 10044 10056 10065 10077 10088 10096 10105 10118 10133 10145 10157 10168
9881 9876 9871 9869 9866 9864 9862 9861 9860 9859 9859 9860 9860 9861 9862 9862 9863 9865 9868 9870 9872 9875 9878 9881 9884 9888 9890 9893 9897 9901 9910 9920 9928 9936 9947 9955 9963 9976 9992 10000 10005 10014 10026 10038 10049 10060 10072 10084 10095 10105 10116 10128 10138 10146
9884 9879 9875 9871 9868 9865 9863 9861 9860 9859 9859 9859 9860 9860 9861 9863 9864 9865 9867 9868 9869 9871 9872 9874 9879 9884 9885 9887 9893 9899 9906 9913 9919 9927 9938 9945 9955 9967 9979 9988 9996 10006 10015 10026 10036 10045 10057 10070 10081 10090 10098 10108 10117 10122
9886 9882 9878 9874 9871 9869 9866 9864 9863 9862 9862 9862 9862 9861 9862 9863 9865 9866 9867 9867 9868 9870 9874 9877 9879 9881 9885 9888 9890 9896 9902 9909 9917 9924 9930 9938 9948 9958 9966 9976 9985 9994 10004 10013 10023 10034 10044 10053 10061 10069 10077 10086 10095 10106
9890 9885 9882 9878 9875 9872 9869 9867 9866 9864 9863 9863 9863 9862 9862 9863 9863 9864 9866 9868 9869 9871 9874 9876 9877 9880 9883 9885 9890 9895 9901 9906 9911 9917 9924 9931 9938 9946 9956 9966 9975 9984 9992 10001 10012 10023 10032 10040 10049 10057 10066 10075 10082 10088
9891 9887 9884 9881 9877 9875 9872 9872 9870 9868 9867 9865 9864 9864 9865 9865 9865 9865 9866 9868 9870 9872 9873 9876 9879 9879 9881 9885 9889 9894 9899 9904 9910 9916 9921 9927 9934 9942 9951 9960 9969 9978 9986 9995 10004 10013 10021 10029 10037 10044 10052 10060 10068 10076
9892 9889 9886 9883 9879 9877 9877 9874 9873 9869 9867 9867 9866 9866 9867 9867 9867 9868 9868 9868 9870 9871 9874 9876 9877 9879 9883 9886 9890 9893 9897 9901 9906 9912 9918 9923 9929 9935 9942 9950 9957 9965 9973 9981 9989 9998 10007 10015 10022 10029 10036 10044 10052 10059
9891 9888 9885 9883 9881 9879 9876 9876 9874 9872 9870 9868 9868 9869 9869 9869 9869 9870 9870 9871 9873 9873 9874 9876 9878 9880 9883 9886 9889 9892 9895 9899 9902 9907 9912 9917 9923 9927 9934 9940 9945 9952 9959 9967 9975 9984 9993 10002 10010 10017 10024 10032 10038 10043
9889 9887 9885 9882 9880 9879 9878 9875 9873 9872 9870 9870 9869 9868 9869 9870 9870 9870 9871 9872 9874 9875 9876 9878 9879 9881 9883 9886 9890 9892 9895 9899 9903 9906 9909 9912 9917 9921 9926 9932 9938 9945 9951 9957 9965 9974 9982 9990 9998 10005 10012 10017 10022 10029
9888 9885 9883 9881 9879 9877 9876 9874 9873 9872 9872 9871 9870 9869 9869 9870 9870 9870 9871 9872 9873 9874 9876 9879 9881 9882 9883 9884 9886 9890 9893 9896 9899 9903 9907 9909 9913 9918 9922 9926 9932 9938 9945 9951 9958 9965 9973 9981 9987 9992 9998 10004 10012 10017
9884 9882 9879 9878 9876 9875 9874 9872 9871 9870 9870 9870 9870 9870 9870 9869 9869 9869 9869 9870 9870 9871 9873 9876 9878 9880 9883 9884 9886 9887 9889 9892 9895 9898 9901 9905 9908 9911 9915 9919 9923 9927 9933 9939 9945 9953 9962 9967 9971 9978 9987 9990 9995 10000
9879 9877 9875 9874 9872 9871 9870 9870 9870 9868 9867 9867 9867 9868 9868 9868 9868 9869 9868 9869 9870 9870 9870 9872 9874 9876 9879 9881 9882 9884 9885 9886 9888 9891 9893 9897 9900 9904 9908 9912 9916 9921 9926 9930 9935 9941 9947 9952 9958 9965 9973 9976 9979 9984
9872 9871 9870 9869 9868 9867 9866 9865 9865 9866 9865 9864 9863 9863 9864 9864 9865 9865 9866 9867 9867 9868 9868 9869 9870 9872 9874 9876 9878 9879 9880 9881 9883 9885 9888 9891 9894 9898 9901 9905 9909 9913 9917 9921 9925 9929 9934 9938 9943 9949 9954 9959 9963 9967
9864 9864 9863 9862 9861 9861 9860 9859 9859 9859 9860 9860 9861 9861 9862 9862 9861 9861 9862 9863 9863 9864 9864 9866 9867 9868 9870 9871 9873 9875 9876 9877 9879 9881 9883 9886 9889 9892 9894 9898 9901 9904 9907 9911 9915 9918 9923 9926 9930 9934 9939 9942 9947 9951
9853 9853 9853 9853 9852 9852 9851 9852 9852 9852 9853 9853 9854 9854 9855 9855 9857 9857 9857 9858 9859 9860 9861 9862 9863 9864 9865 9866 9867 9869 9871 9873 9874 9876 9878 9880 9882 9884 9887 9890 9892 9895 9898 9901 9904 9907 9910 9914 9917 9920 9923 9927 9930 9933